User: anonymous   Login
Location: Unspecified
(0.0000°N, 0.0000°E)
Time: 11:03:23
(UTC+00:00)
Language:

Himawari 2 - Orbit

View from above orbital plane
View from above orbital plane
View from above satellite
View from above satellite

Ground track
Ground track

The orbit data is extracted from the following two-line orbital elements,

1 12677U 81076A   17351.95923833 -.00000023  00000-0  00000+0 0  9999
2 12677  13.8705 333.6913 0012940 259.2700 280.5039  0.99547124101323
Epoch (UTC): 17 December 2017 23:01:18
Eccentricity: 0.0012940
inclination: 13.8705°
perigee height: 35936 km
apogee height: 36045 km
right ascension of ascending node: 333.6913°
argument of perigee: 259.2700°
revolutions per day: 0.99547124
mean anomaly at epoch: 280.5039°
orbit number at epoch: 10132

The dashed part of the orbit path shows where the satellite is in the earth's shadow,  

DLR